Regional Weather Roundup
Issued by NWS Midland/Odessa, TX

Skip options and go directly to product.
Home | Oldest Version | Previous Version | Current Version | All | Text Only | Save Text | Print | Product List | Glossary On

Skip product version selection by date and time.   
449
ASUS44 KMAF 312110
RWRMAF
MIDLAND AREA WEATHER ROUNDUP
NATIONAL WEATHER SERVICE MIDLAND TX
300 PM CST SAT JAN 31 2015

...IN SOUTHWEST TEXAS AND SOUTHEAST NEW MEXICO...

CITY           SKY/WX    TMP DP  RH WIND       PRES   REMARKS
ALPINE         SUNNY     59  45  58 SW15G21   29.92F
ANDREWS        CLOUDY    47  47 100 S8        29.88F FOG
ARTESIA        CLOUDY    46  45  93 SE6       29.86F
BIG SPRING     CLOUDY    54  52  94 S16       29.91F
CARLSBAD       CLOUDY    47  41  80 N5        29.86F
DRYDEN           N/A     52  52 100 E6        29.88F
FORT STOCKTON  PTSUNNY   67  49  52 S13       29.82F
GUAD PASS      CLOUDY    48  45  89 W17G23    29.87F
HOBBS          FOG       45  45 100 SE8       29.87F VSB 1/4
MARFA          PTSUNNY   61  43  51 S21G26    29.89F
MIDLAND AIRPK  CLOUDY    51  51 100 S14       29.89S
MIDLAND INTL   CLOUDY    50  49  96 S15       29.87F FOG
ODESSA         CLOUDY    50  48  93 S14       29.88F FOG
PECOS          CLOUDY    51  47  84 N3        29.86F
PRESIDIO       FAIR      66  52  60 SE6       29.84F
SEMINOLE       FOG       44  44 100 CALM      29.89F VSB 1/4
SNYDER         DRIZZLE  N/A N/A N/A S8        29.90F
WINK           CLOUDY    53  46  77 E3        29.84F
$$
...OTHER STATIONS IN TEXAS...

CITY           SKY/WX    TMP DP  RH WIND       PRES   REMARKS
ABILENE        CLOUDY    50  47  89 S18       29.91F
AMARILLO       CLOUDY    38  37  97 S13       29.87F WCI  30
AUSTIN         LGT RAIN  57  57 100 CALM      29.98F FOG
BROWNSVILLE    CLOUDY    73  62  68 SE22G30   29.96F
CORPUS CHRISTI CLOUDY    72  62  71 S21       29.97F
DALLAS FTW     LGT RAIN  51  40  65 SE13      30.01F VSB 1
DEL RIO        LGT RAIN  54  53  97 SE7       29.92F FOG
EL PASO        PTSUNNY   57  46  66 SW9       29.84F
HOUSTON INT    CLOUDY    62  52  69 SE13      30.06F
LUBBOCK        LGT RAIN  42  41  96 S6        29.88F FOG     WCI  38
SAN ANGELO     CLOUDY    58  53  84 S13       29.89F
SAN ANTONIO    LGT RAIN  58  56  93 NE3       29.96F FOG
WACO           LGT RAIN  54  48  80 SE5       30.02F
WICHITA FALLS  NOT AVBL
$$
...OTHER LOCATIONS IN NEW MEXICO...

CITY           SKY/WX    TMP DP  RH WIND       PRES   REMARKS
ALAMAGORDO     CLOUDY    48  46  93 SW6       29.87F
ALBUQUERQUE    CLOUDY    39  35  86 CALM      29.89F FOG
CANNON AFB     NOT AVBL
CLOVIS         CLOUDY    39  37  93 SW12      29.85F WCI  32
HOLLOMAN AFB   CLOUDY    48  46  95 S7        29.86F
ROSWELL        CLOUDY    45  40  82 SE5       29.85F
RUIDOSO        MOSUNNY   46  36  66 SW18G24   29.86F WCI  39
SANTA FE       CLOUDY    34  31  88 S5        29.86F WCI  30
TRUTH OR CONSE CLOUDY    48  42  80 SW5       29.85F
TUCUMCARI      CLOUDY    42  38  85 SW7       29.82F WCI  38
$$

USA.gov is the U.S. government's official web portal to all federal, state and local government web resources and services.